Content
SEND FEEDBACK

Daily
Averages
Monthly
Summary
France

CAEN, FRANCE


Home > Europe > France
Elevation: 220 feet     Latitude: 49 11N     Longitude: 000 27W

WEATHER
 
SELECT A DAY
Number of Records: 215,980;   Date Range: 7/1/96 - 8/10/14
 
SHARE

PRINT THIS DATA

[ ← Previous Day ]
WEATHER ALMANAC - MAY 7, 2013
[ Next Day → ]
[ °C ]   °F
Weather ElementAverageHighLow
Temperature59 °F71.6 °F (2:30 pm)44.6 °F (3:30 am)
Dewpoint46.7 °F51.8 °F (10:00 am)42.8 °F (2:30 am)
Humidity66.2 %93 % (1:30 am)28 % (2:00 pm)
Barometer29.99 in30.08 in (2:00 am)29.89 in (9:30 pm)
Wind Speed5.5 mph11.5 mph (5:00 pm)
Weather ElementAverage
Visibility7 mi
Wind DirectionESE (118.2 °)

Weather ElementTotal
Precipitation---
Heating Degree Days6.9 (Base 65)
Growing Degree Days8.1 (Base 50)
Averaged from 51 records on May 7, 2013
WEATHER CONDITIONS BREAKOUT
WIND DIRECTION BREAKOUT
WEATHER BY HOUR - MAY 7, 2013
[ °C ]   °F
Local TimeTemperatureDewpointHumidityBarometerVisibilityWind DirectionWind SpeedGust SpeedPrecipitationEventsConditions
12:30 AM50.0 °F44.6 °F82 %30.06 in6.2 miCalm
1:00 AM48.2 °F44.6 °F87 %30.06 in6.2 miSSW (200°)4.6 mph
1:30 AM46.4 °F44.6 °F93 %30.06 in6.2 miSW (220°)4.6 mph
2:00 AM47.0 °F44.0 °F85 %30.08 in11.0 miSSW (210°)4.6 mphClear
2:00 AM46.4 °F44.6 °F93 %30.06 in6.2 miSSW (210°)3.5 mph
2:30 AM46.4 °F42.8 °F87 %30.04 in6.2 miSouth (190°)4.6 mph
3:00 AM46.4 °F44.6 °F93 %30.04 in6.2 miSSE (160°)2.3 mph
3:30 AM44.6 °F42.8 °F93 %30.04 in6.2 miSSE (150°)4.6 mph
4:00 AM46.4 °F42.8 °F87 %30.04 in6.2 miSSE (150°)2.3 mph
4:30 AM46.4 °F42.8 °F87 %30.01 in6.2 miSouth (190°)2.3 mph
5:00 AM46.4 °F42.8 °F87 %30.01 in6.2 miSE (140°)3.5 mph
5:30 AM46.4 °F42.8 °F87 %30.01 in6.2 miESE (110°)4.6 mph
6:00 AM46.4 °F42.8 °F87 %30.01 in6.2 miSSE (150°)3.5 mph
6:30 AM46.4 °F42.8 °F87 %30.01 in6.2 miSSE (150°)2.3 mph
7:00 AM46.4 °F42.8 °F87 %30.04 in6.2 miSSE (150°)4.6 mph
7:30 AM46.4 °F44.6 °F93 %30.04 in6.2 miSSE (150°)3.5 mph
8:00 AM49.0 °F45.0 °F82 %30.05 in12.0 miESE (120°)5.8 mphScattered Clouds
8:00 AM50.0 °F46.4 °F87 %30.04 in6.2 miESE (120°)5.8 mph
8:30 AM51.8 °F46.4 °F82 %30.04 in6.2 miESE (110°)6.9 mph
9:00 AM51.8 °F46.4 °F82 %30.04 in6.2 miSSE (160°)4.6 mph
9:30 AM55.4 °F48.2 °F77 %30.04 in6.2 miSE (140°)4.6 mph
10:00 AM60.8 °F51.8 °F72 %30.04 in6.2 miSE (140°)5.8 mph
10:30 AM62.6 °F51.8 °F68 %30.04 in6.2 miSE (140°)5.8 mphScattered Clouds
11:00 AM64.4 °F51.8 °F64 %30.01 in6.2 miSSE (150°)5.8 mph
11:30 AM68.0 °F50.0 °F52 %30.01 in6.2 miSSE (160°)5.8 mph
12:00 PM69.8 °F48.2 °F46 %30.01 in6.2 miSSE (150°)4.6 mph
12:30 PM69.8 °F46.4 °F43 %30.01 in6.2 miSSE (150°)6.9 mphPartly Cloudy
1:00 PM69.8 °F46.4 °F43 %30.01 in6.2 miENE (60°)5.8 mph
1:30 PM69.8 °F46.4 °F43 %30.01 in6.2 miEast (100°)4.6 mph
2:00 PM71.0 °F45.0 °F28 %30.00 in19.0 miESE (120°)6.9 mphScattered Clouds
2:00 PM69.8 °F44.6 °F40 %30.01 in6.2 miESE (120°)6.9 mph
2:30 PM71.6 °F46.4 °F41 %29.98 in6.2 miVariable2.3 mph
3:00 PM71.6 °F44.6 °F38 %29.98 in6.2 miSSE (160°)5.8 mph
3:30 PM71.6 °F44.6 °F38 %29.98 in6.2 miENE (60°)4.6 mph
4:00 PM71.6 °F50.0 °F46 %29.98 in6.2 miENE (70°)8.1 mph
4:30 PM69.8 °F50.0 °F49 %29.95 in6.2 miNE (40°)10.4 mph
5:00 PM69.8 °F50.0 °F49 %29.95 in6.2 miENE (60°)11.5 mph
5:30 PM69.8 °F48.2 °F46 %29.95 in6.2 miENE (60°)11.5 mph
6:00 PM69.8 °F48.2 °F46 %29.95 in6.2 miENE (60°)11.5 mph
6:30 PM68.0 °F46.4 °F46 %29.92 in6.2 miENE (70°)11.5 mph
7:00 PM68.0 °F46.4 °F46 %29.92 in6.2 miENE (70°)10.4 mph
7:30 PM66.2 °F48.2 °F52 %29.92 in6.2 miENE (60°)8.1 mph
8:00 PM65.0 °F49.0 °F45 %29.92 in22.0 miENE (70°)5.8 mphClear
8:00 PM66.2 °F48.2 °F52 %29.92 in6.2 miENE (70°)5.8 mph
8:30 PM64.4 °F50.0 °F59 %29.92 in6.2 miENE (70°)6.9 mph
9:00 PM64.4 °F50.0 °F59 %29.92 in6.2 miENE (70°)5.8 mph
9:30 PM62.6 °F50.0 °F63 %29.89 in6.2 miEast (80°)4.6 mph
10:00 PM62.6 °F50.0 °F63 %29.89 in6.2 miEast (90°)3.5 mph
10:30 PM59.0 °F50.0 °F72 %29.89 in6.2 miSE (140°)3.5 mph
11:00 PM59.0 °F50.0 °F72 %29.89 in6.2 miSE (130°)3.5 mph
11:30 PM59.0 °F50.0 °F72 %29.89 in6.2 miSE (130°)4.6 mph
Hourly data recorded from LFRK, located miles away from Caen, France







STORIES FROM OUR PARTNERS